Tracking 22881 objects as of 19-Apr-2021
HD Live streaming from Space Station
objects crossing your sky now

STARLINK-1133

Track STARLINK-1133 now!
10-day predictions
STARLINK-1133 is classified as:


NORAD ID: 45064
Int'l Code: 2020-006W
Perigee: 552.9 km
Apogee: 555.7 km
Inclination: 53.1 °
Period: 95.6 minutes
Semi major axis: 6925 km
RCS: Unknown
Launch date: January 29, 2020
Source: United States (US)
Launch site: AIR FORCE EASTERN TEST RANGE (AFETR)
aabbcc
Your satellite tracking list
Your tracking list is empty




NASA's NSSDC Master Catalog

Two Line Element Set (TLE):
1 45064U 20006W   21108.83786757 -.00000124  00000-0  10563-4 0  9997
2 45064  53.0596   3.6108 0002025  85.9703 274.1517 15.06403527 67573
Source of the keplerian elements: AFSPC